Location: Caltech
(34.1382°N, 118.1253°W)
Time: 04:08:47
(UTC-07:00)

JAS-2 - Visible Passes

Search period start: 06 May 2016 00:00
Search period end: 16 May 2016 00:00
Orbit: 801 x 1321 km, 98.6° (Epoch: 05 May)

Date Brightness Start Highest point End Pass type
(mag) Time Alt. Az. Time Alt. Az. Time Alt. Az.
06 May 10.9 01:13:53 10° NNE 01:20:06 40° ENE 01:20:06 40° ENE visible
06 May 10.8 02:58:58 10° N 03:06:01 38° WNW 03:06:36 37° WNW visible
07 May 12.0 00:21:22 10° NE 00:24:28 15° ENE 00:24:28 15° ENE visible
07 May 10.0 02:03:32 10° NNE 02:10:58 80° N 02:10:58 80° N visible
07 May 11.7 03:50:49 10° NNW 03:55:18 17° WNW 03:57:27 15° WNW visible
08 May 11.0 01:09:08 10° NNE 01:15:20 38° ENE 01:15:20 38° ENE visible
08 May 10.7 02:54:03 10° N 03:01:13 40° WNW 03:01:49 39° WNW visible
09 May 12.0 00:16:57 10° ENE 00:19:41 14° ENE 00:19:41 14° ENE visible
09 May 10.0 01:58:41 10° NNE 02:06:11 81° NNE 02:06:11 81° NNE visible
09 May 11.6 03:45:46 10° NNW 03:50:31 18° WNW 03:52:40 16° W visible
10 May 11.0 01:04:23 10° NNE 01:10:32 35° E 01:10:32 35° E visible
10 May 10.6 02:49:09 10° N 02:56:24 42° WNW 02:57:01 42° W visible
11 May 12.1 00:12:39 10° ENE 00:14:53 13° E 00:14:53 13° E visible
11 May 10.0 01:53:52 10° NNE 02:01:23 80° NE 02:01:23 80° NE visible
11 May 11.5 03:40:44 10° NNW 03:45:44 19° WNW 03:47:51 17° W visible
12 May 11.1 00:59:40 10° NNE 01:05:43 33° E 01:05:43 33° E visible
12 May 10.5 02:44:15 10° N 02:51:36 45° WNW 02:52:13 44° W visible
13 May 12.1 00:08:33 10° ENE 00:10:04 11° E 00:10:04 11° E visible
13 May 10.0 01:49:02 10° NNE 01:56:33 77° ENE 01:56:33 77° ENE visible
13 May 11.5 03:35:43 10° NNW 03:40:56 20° WNW 03:43:02 18° W visible
14 May 11.2 00:54:57 10° NE 01:00:53 31° E 01:00:53 31° E visible
14 May 10.4 02:39:22 10° N 02:46:47 47° WNW 02:47:23 47° W visible
15 May 10.0 01:44:14 10° NNE 01:51:42 73° ENE 01:51:42 73° ENE visible
15 May 11.4 03:30:44 10° NNW 03:36:08 21° WNW 03:38:11 19° W visible
